When you browse on this site, cookies collect data to enhance your experience and personalize the content and advertising you see.
Visit our Privacy Policy to learn more. By continuing to use the site, you agree to this use of cookies and data.
  • în România
  • Lista ţărilor
  • Pe 7 zile
  • Temperatura apei
  • Meteo pe hartă
  • Widget-uri
  • user-avatar
    Intrare

    Meteo pe oră la Skarżysko-Kamienna

    Astăzi, 13 Noiembrie, Miercuri

    Timp Temperatura Precipitaţii Vânt Presiune Umiditate
    00:00 +9°C° 0 mm 5 m/s 734 mmHg 76%
    01:00 +10°C° 0 mm 5 m/s 734 mmHg 74%
    02:00 +11°C° 0.1 mm 6 m/s 733 mmHg 74%
    03:00 +11°C° 0.1 mm 6 m/s 733 mmHg 75%
    04:00 +13°C° 0.1 mm 6 m/s 733 mmHg 75%
    05:00 +12°C° 0.3 mm 5 m/s 733 mmHg 76%
    06:00 +12°C° 0.3 mm 5 m/s 732 mmHg 77%
    07:00 +12°C° 0.3 mm 4 m/s 732 mmHg 78%
    08:00 +12°C° 0.1 mm 5 m/s 732 mmHg 75%
    09:00 +13°C° 0.1 mm 6 m/s 732 mmHg 72%
    10:00 +13°C° 0.1 mm 6 m/s 731 mmHg 69%
    11:00 +12°C° 0.1 mm 7 m/s 731 mmHg 69%
    12:00 +14°C° 0.1 mm 7 m/s 731 mmHg 68%
    13:00 +14°C° 0 mm 6 m/s 731 mmHg 70%
    14:00 +14°C° 0 mm 6 m/s 731 mmHg 73%
    15:00 +14°C° 0 mm 5 m/s 731 mmHg 76%
    16:00 +13°C° 0 mm 5 m/s 730 mmHg 78%
    17:00 +13°C° 0 mm 5 m/s 730 mmHg 76%
    18:00 +13°C° 0 mm 5 m/s 730 mmHg 74%
    19:00 +13°C° 0 mm 6 m/s 730 mmHg 72%
    20:00 +13°C° 0 mm 6 m/s 730 mmHg 72%
    21:00 +13°C° 0 mm 6 m/s 730 mmHg 72%
    22:00 +12°C° 0 mm 7 m/s 731 mmHg 72%
    23:00 +11°C° 0.1 mm 6 m/s 731 mmHg 77%

    Mâine, 14 Noiembrie, Joi

    Timp Temperatura Precipitaţii Vânt Presiune Umiditate
    00:00 +10°C° 0.1 mm 5 m/s 732 mmHg 82%
    01:00 +11°C° 0.1 mm 4 m/s 733 mmHg 87%
    02:00 +10°C° 0.6 mm 3 m/s 733 mmHg 88%
    03:00 +9°C° 0.6 mm 3 m/s 733 mmHg 90%
    04:00 +8°C° 0.6 mm 2 m/s 734 mmHg 91%
    05:00 +8°C° 0.1 mm 2 m/s 735 mmHg 90%
    06:00 +7°C° 0.1 mm 2 m/s 736 mmHg 89%
    07:00 +7°C° 0.1 mm 2 m/s 736 mmHg 88%
    08:00 +7°C° 0 mm 2 m/s 737 mmHg 85%
    09:00 +9°C° 0 mm 1 m/s 737 mmHg 83%
    10:00 +9°C° 0 mm 1 m/s 738 mmHg 80%
    11:00 +9°C° 0 mm 1 m/s 738 mmHg 79%
    12:00 +10°C° 0 mm 1 m/s 738 mmHg 77%
    13:00 +10°C° 0 mm 1 m/s 739 mmHg 75%
    14:00 +9°C° 0 mm 2 m/s 739 mmHg 79%
    15:00 +8°C° 0 mm 2 m/s 739 mmHg 82%
    16:00 +8°C° 0 mm 2 m/s 739 mmHg 86%
    17:00 +7°C° 0 mm 2 m/s 739 mmHg 88%
    18:00 +7°C° 0 mm 2 m/s 739 mmHg 90%
    19:00 +7°C° 0 mm 2 m/s 739 mmHg 92%
    20:00 +7°C° 0 mm 2 m/s 739 mmHg 93%
    21:00 +7°C° 0 mm 2 m/s 739 mmHg 94%
    22:00 +7°C° 0 mm 2 m/s 739 mmHg 96%
    23:00 +8°C° 0 mm 2 m/s 739 mmHg 96%

    Poimâine, 15 Noiembrie, Vineri

    Timp Temperatura Precipitaţii Vânt Presiune Umiditate
    00:00 +8°C° 0 mm 2 m/s 739 mmHg 97%
    01:00 +9°C° 0 mm 2 m/s 738 mmHg 98%
    02:00 +9°C° 0 mm 2 m/s 738 mmHg 97%
    03:00 +9°C° 0 mm 2 m/s 738 mmHg 97%
    04:00 +9°C° 0 mm 2 m/s 738 mmHg 97%
    05:00 +9°C° 0 mm 2 m/s 738 mmHg 97%
    06:00 +8°C° 0 mm 2 m/s 738 mmHg 96%
    07:00 +8°C° 0 mm 2 m/s 738 mmHg 96%
    08:00 +9°C° 0 mm 3 m/s 738 mmHg 92%
    09:00 +10°C° 0 mm 3 m/s 738 mmHg 87%
    10:00 +12°C° 0 mm 4 m/s 739 mmHg 83%
    11:00 +13°C° 0 mm 4 m/s 739 mmHg 79%
    12:00 +14°C° 0 mm 4 m/s 739 mmHg 74%
    13:00 +15°C° 0 mm 4 m/s 739 mmHg 70%
    14:00 +14°C° 0 mm 4 m/s 738 mmHg 75%
    15:00 +13°C° 0 mm 4 m/s 738 mmHg 81%
    16:00 +11°C° 0 mm 3 m/s 738 mmHg 86%
    17:00 +11°C° 0 mm 4 m/s 738 mmHg 87%
    18:00 +11°C° 0 mm 4 m/s 738 mmHg 87%
    19:00 +11°C° 0 mm 4 m/s 739 mmHg 88%
    20:00 +10°C° 0 mm 4 m/s 739 mmHg 87%
    21:00 +10°C° 0 mm 4 m/s 739 mmHg 87%
    22:00 +10°C° 0 mm 4 m/s 739 mmHg 87%
    23:00 +10°C° 0 mm 4 m/s 739 mmHg 87%

    16 Noiembrie, Sâmbătă

    Timp Temperatura Precipitaţii Vânt Presiune Umiditate
    00:00 +10°C° 0 mm 4 m/s 739 mmHg 88%
    01:00 +10°C° 0 mm 4 m/s 739 mmHg 88%
    02:00 +10°C° 0 mm 4 m/s 739 mmHg 87%
    03:00 +8°C° 0 mm 4 m/s 738 mmHg 87%
    04:00 +8°C° 0 mm 4 m/s 738 mmHg 86%
    05:00 +8°C° 0 mm 4 m/s 738 mmHg 86%
    06:00 +8°C° 0 mm 4 m/s 738 mmHg 87%
    07:00 +8°C° 0 mm 4 m/s 738 mmHg 87%
    08:00 +9°C° 0 mm 5 m/s 738 mmHg 80%
    09:00 +11°C° 0 mm 6 m/s 738 mmHg 74%
    10:00 +12°C° 0 mm 7 m/s 738 mmHg 68%
    11:00 +14°C° 0 mm 7 m/s 738 mmHg 66%
    12:00 +14°C° 0 mm 7 m/s 738 mmHg 63%
    13:00 +15°C° 0 mm 7 m/s 738 mmHg 61%
    14:00 +15°C° 0 mm 7 m/s 738 mmHg 63%
    15:00 +14°C° 0 mm 7 m/s 737 mmHg 65%
    16:00 +12°C° 0 mm 8 m/s 737 mmHg 67%
    17:00 +12°C° 0 mm 7 m/s 738 mmHg 71%
    18:00 +11°C° 0 mm 6 m/s 739 mmHg 74%
    19:00 +12°C° 0 mm 5 m/s 739 mmHg 77%
    20:00 +11°C° 0 mm 4 m/s 740 mmHg 79%
    21:00 +10°C° 0 mm 3 m/s 740 mmHg 82%
    22:00 +10°C° 0 mm 2 m/s 741 mmHg 85%
    23:00 +11°C° 0 mm 1 m/s 741 mmHg 84%

    17 Noiembrie, Duminică

    Timp Temperatura Precipitaţii Vânt Presiune Umiditate
    00:00 +10°C° 0 mm 1 m/s 741 mmHg 84%
    01:00 +10°C° 0 mm 1 m/s 742 mmHg 83%
    02:00 +10°C° 0 mm 1 m/s 741 mmHg 85%
    03:00 +10°C° 0 mm 1 m/s 741 mmHg 87%
    04:00 +9°C° 0 mm 2 m/s 741 mmHg 89%
    05:00 +8°C° 0 mm 2 m/s 741 mmHg 90%
    06:00 +8°C° 0 mm 2 m/s 741 mmHg 91%
    07:00 +8°C° 0 mm 2 m/s 741 mmHg 92%
    08:00 +9°C° 0 mm 3 m/s 742 mmHg 85%
    09:00 +11°C° 0 mm 3 m/s 742 mmHg 78%
    10:00 +12°C° 0 mm 3 m/s 742 mmHg 71%
    11:00 +13°C° 0 mm 3 m/s 741 mmHg 67%
    12:00 +14°C° 0 mm 3 m/s 741 mmHg 63%
    13:00 +15°C° 0 mm 4 m/s 741 mmHg 59%
    14:00 +14°C° 0 mm 4 m/s 740 mmHg 65%
    15:00 +12°C° 0 mm 4 m/s 740 mmHg 71%
    16:00 +11°C° 0 mm 4 m/s 740 mmHg 77%
    17:00 +11°C° 0 mm 4 m/s 739 mmHg 81%
    18:00 +10°C° 0 mm 4 m/s 739 mmHg 85%
    19:00 +8°C° 0 mm 4 m/s 739 mmHg 89%
    20:00 +8°C° 0 mm 4 m/s 739 mmHg 90%
    21:00 +8°C° 0 mm 4 m/s 738 mmHg 90%
    22:00 +8°C° 0 mm 4 m/s 738 mmHg 90%
    23:00 +8°C° 0 mm 4 m/s 738 mmHg 90%

    18 Noiembrie, Luni

    Timp Temperatura Precipitaţii Vânt Presiune Umiditate
    00:00 +7°C° 0 mm 4 m/s 737 mmHg 90%
    01:00 +7°C° 0 mm 4 m/s 737 mmHg 90%
    02:00 +7°C° 0 mm 4 m/s 737 mmHg 89%
    03:00 +7°C° 0 mm 4 m/s 736 mmHg 88%
    04:00 +7°C° 0 mm 5 m/s 736 mmHg 87%
    05:00 +7°C° 0 mm 5 m/s 736 mmHg 84%
    06:00 +8°C° 0 mm 5 m/s 736 mmHg 81%
    07:00 +8°C° 0 mm 5 m/s 736 mmHg 78%
    08:00 +9°C° 0 mm 5 m/s 736 mmHg 73%
    09:00 +10°C° 0 mm 5 m/s 736 mmHg 67%
    10:00 +12°C° 0 mm 5 m/s 736 mmHg 62%
    11:00 +13°C° 0 mm 5 m/s 736 mmHg 61%
    12:00 +13°C° 0 mm 5 m/s 736 mmHg 60%
    13:00 +14°C° 0 mm 5 m/s 736 mmHg 59%
    14:00 +13°C° 0 mm 5 m/s 736 mmHg 62%
    15:00 +12°C° 0 mm 5 m/s 736 mmHg 64%
    16:00 +11°C° 0 mm 4 m/s 736 mmHg 67%
    17:00 +11°C° 0 mm 4 m/s 737 mmHg 71%
    18:00 +10°C° 0 mm 4 m/s 737 mmHg 75%
    19:00 +10°C° 0 mm 4 m/s 737 mmHg 80%
    20:00 +8°C° 0 mm 4 m/s 737 mmHg 82%
    21:00 +9°C° 0 mm 3 m/s 737 mmHg 84%
    22:00 +9°C° 0 mm 3 m/s 738 mmHg 87%
    23:00 +9°C° 0 mm 3 m/s 738 mmHg 87%
    Arată mai mult